When you browse on this site, cookies collect data to enhance your experience and personalize the content and advertising you see.
Visit our Privacy Policy to learn more. By continuing to use the site, you agree to this use of cookies and data.
  • Em Portugal
  • Lista de países
  • Para 7 dias
  • Temperatura da água
  • Mapas de satélite
  • Mapa do tempo
  • Widgets de tempo
  • user-avatar
    Iniciar Sessão

    Previsão horária em Shkoder

    Hoje, 22 Maio, Quarta-feira

    Tempo Temperatura Precipitação Vento Pressão Humidade
    00:00 +14°C° 0.1 mm 1 m/s 740 mmHg 88%
    01:00 +14°C° 0.1 mm 1 m/s 740 mmHg 89%
    02:00 +14°C° 0 mm 1 m/s 740 mmHg 89%
    03:00 +14°C° 0 mm 1 m/s 740 mmHg 89%
    04:00 +14°C° 0 mm 1 m/s 740 mmHg 88%
    05:00 +15°C° 0 mm 1 m/s 740 mmHg 85%
    06:00 +16°C° 0 mm 1 m/s 740 mmHg 81%
    07:00 +18°C° 0 mm 1 m/s 740 mmHg 78%
    08:00 +19°C° 0 mm 1 m/s 740 mmHg 73%
    09:00 +20°C° 0 mm 1 m/s 740 mmHg 69%
    10:00 +21°C° 0 mm 1 m/s 740 mmHg 64%
    11:00 +21°C° 0 mm 2 m/s 740 mmHg 63%
    12:00 +21°C° 0 mm 2 m/s 740 mmHg 62%
    13:00 +21°C° 0 mm 3 m/s 739 mmHg 61%
    14:00 +21°C° 0 mm 3 m/s 739 mmHg 62%
    15:00 +21°C° 0 mm 3 m/s 739 mmHg 62%
    16:00 +20°C° 0 mm 3 m/s 739 mmHg 63%
    17:00 +19°C° 0 mm 2 m/s 739 mmHg 70%
    18:00 +18°C° 0 mm 1 m/s 739 mmHg 76%
    19:00 +14°C° 0 mm 0 m/s 739 mmHg 82%
    20:00 +15°C° 0 mm 1 m/s 739 mmHg 82%
    21:00 +14°C° 0 mm 1 m/s 739 mmHg 82%
    22:00 +14°C° 0 mm 1 m/s 740 mmHg 82%
    23:00 +13°C° 0 mm 1 m/s 740 mmHg 80%

    Amanhã, 23 Maio, Quinta-feira

    Tempo Temperatura Precipitação Vento Pressão Humidade
    00:00 +13°C° 0 mm 1 m/s 740 mmHg 78%
    01:00 +13°C° 0 mm 1 m/s 740 mmHg 76%
    02:00 +13°C° 0 mm 1 m/s 740 mmHg 74%
    03:00 +13°C° 0 mm 1 m/s 739 mmHg 72%
    04:00 +13°C° 0 mm 1 m/s 739 mmHg 70%
    05:00 +15°C° 0 mm 1 m/s 739 mmHg 67%
    06:00 +16°C° 0 mm 1 m/s 739 mmHg 64%
    07:00 +19°C° 0 mm 1 m/s 739 mmHg 61%
    08:00 +20°C° 0 mm 1 m/s 739 mmHg 58%
    09:00 +21°C° 0 mm 1 m/s 739 mmHg 54%
    10:00 +23°C° 0 mm 1 m/s 739 mmHg 50%
    11:00 +23°C° 0 mm 2 m/s 739 mmHg 51%
    12:00 +23°C° 0 mm 2 m/s 739 mmHg 52%
    13:00 +23°C° 0 mm 2 m/s 738 mmHg 53%
    14:00 +23°C° 0.1 mm 2 m/s 738 mmHg 56%
    15:00 +23°C° 0.1 mm 2 m/s 738 mmHg 58%
    16:00 +21°C° 0.1 mm 2 m/s 738 mmHg 61%
    17:00 +20°C° 0.1 mm 2 m/s 738 mmHg 68%
    18:00 +19°C° 0.1 mm 1 m/s 738 mmHg 76%
    19:00 +16°C° 0.1 mm 1 m/s 738 mmHg 83%
    20:00 +16°C° 0.1 mm 1 m/s 738 mmHg 84%
    21:00 +15°C° 0.1 mm 1 m/s 738 mmHg 85%
    22:00 +15°C° 0.1 mm 1 m/s 738 mmHg 86%
    23:00 +15°C° 0.1 mm 1 m/s 738 mmHg 85%

    Depois de amanhã, 24 Maio, Sexta-feira

    Tempo Temperatura Precipitação Vento Pressão Humidade
    00:00 +15°C° 0.1 mm 1 m/s 738 mmHg 85%
    01:00 +15°C° 0.1 mm 2 m/s 738 mmHg 84%
    02:00 +15°C° 0.1 mm 2 m/s 738 mmHg 85%
    03:00 +14°C° 0.1 mm 2 m/s 737 mmHg 85%
    04:00 +14°C° 0.1 mm 1 m/s 737 mmHg 85%
    05:00 +16°C° 0 mm 1 m/s 737 mmHg 81%
    06:00 +18°C° 0 mm 1 m/s 737 mmHg 76%
    07:00 +19°C° 0 mm 1 m/s 737 mmHg 71%
    08:00 +20°C° 0.1 mm 1 m/s 737 mmHg 66%
    09:00 +22°C° 0.1 mm 1 m/s 737 mmHg 62%
    10:00 +23°C° 0.1 mm 1 m/s 737 mmHg 57%
    11:00 +23°C° 0.8 mm 2 m/s 737 mmHg 60%
    12:00 +23°C° 0.8 mm 2 m/s 737 mmHg 62%
    13:00 +23°C° 0.8 mm 2 m/s 737 mmHg 64%
    14:00 +21°C° 1.5 mm 2 m/s 736 mmHg 67%
    15:00 +21°C° 1.5 mm 2 m/s 736 mmHg 69%
    16:00 +20°C° 1.5 mm 2 m/s 736 mmHg 72%
    17:00 +20°C° 0.9 mm 1 m/s 736 mmHg 77%
    18:00 +19°C° 0.9 mm 1 m/s 737 mmHg 82%
    19:00 +16°C° 0.9 mm 1 m/s 737 mmHg 87%
    20:00 +16°C° 0.1 mm 1 m/s 737 mmHg 88%
    21:00 +15°C° 0.1 mm 1 m/s 738 mmHg 88%
    22:00 +15°C° 0.1 mm 1 m/s 738 mmHg 88%
    23:00 +15°C° 0 mm 1 m/s 738 mmHg 87%

    25 Maio, Sábado

    Tempo Temperatura Precipitação Vento Pressão Humidade
    00:00 +14°C° 0 mm 1 m/s 738 mmHg 87%
    01:00 +14°C° 0 mm 1 m/s 738 mmHg 86%
    02:00 +14°C° 0 mm 1 m/s 738 mmHg 85%
    03:00 +13°C° 0 mm 1 m/s 738 mmHg 84%
    04:00 +13°C° 0 mm 1 m/s 738 mmHg 84%
    05:00 +15°C° 0 mm 1 m/s 739 mmHg 80%
    06:00 +16°C° 0 mm 1 m/s 739 mmHg 76%
    07:00 +17°C° 0 mm 0 m/s 739 mmHg 73%
    08:00 +20°C° 0 mm 1 m/s 739 mmHg 70%
    09:00 +21°C° 0 mm 1 m/s 739 mmHg 66%
    10:00 +21°C° 0 mm 2 m/s 740 mmHg 63%
    11:00 +23°C° 0 mm 2 m/s 739 mmHg 64%
    12:00 +23°C° 0 mm 2 m/s 739 mmHg 65%
    13:00 +22°C° 0 mm 3 m/s 739 mmHg 65%
    14:00 +23°C° 0.1 mm 2 m/s 739 mmHg 67%
    15:00 +23°C° 0.1 mm 2 m/s 739 mmHg 70%
    16:00 +21°C° 0.1 mm 2 m/s 739 mmHg 72%
    17:00 +20°C° 0 mm 2 m/s 739 mmHg 77%
    18:00 +19°C° 0 mm 1 m/s 739 mmHg 83%
    19:00 +18°C° 0 mm 1 m/s 739 mmHg 89%
    20:00 +16°C° 0 mm 1 m/s 740 mmHg 89%
    21:00 +16°C° 0 mm 1 m/s 740 mmHg 90%
    22:00 +15°C° 0 mm 1 m/s 740 mmHg 90%
    23:00 +15°C° 0 mm 1 m/s 740 mmHg 89%

    26 Maio, Domingo

    Tempo Temperatura Precipitação Vento Pressão Humidade
    00:00 +15°C° 0 mm 1 m/s 740 mmHg 88%
    01:00 +15°C° 0 mm 1 m/s 740 mmHg 87%
    02:00 +15°C° 0 mm 1 m/s 740 mmHg 86%
    03:00 +15°C° 0 mm 1 m/s 740 mmHg 84%
    04:00 +15°C° 0 mm 1 m/s 740 mmHg 82%
    05:00 +16°C° 0 mm 1 m/s 740 mmHg 78%
    06:00 +17°C° 0 mm 0 m/s 740 mmHg 73%
    07:00 +18°C° 0 mm 0 m/s 740 mmHg 69%
    08:00 +19°C° 0 mm 0 m/s 740 mmHg 65%
    09:00 +22°C° 0 mm 1 m/s 740 mmHg 61%
    10:00 +24°C° 0 mm 1 m/s 740 mmHg 57%
    11:00 +24°C° 0 mm 2 m/s 740 mmHg 56%
    12:00 +24°C° 0 mm 2 m/s 740 mmHg 56%
    13:00 +25°C° 0 mm 3 m/s 740 mmHg 55%
    14:00 +24°C° 0 mm 2 m/s 739 mmHg 57%
    15:00 +24°C° 0 mm 2 m/s 739 mmHg 58%
    16:00 +23°C° 0 mm 2 m/s 739 mmHg 60%
    17:00 +22°C° 0 mm 1 m/s 739 mmHg 67%
    18:00 +20°C° 0 mm 1 m/s 739 mmHg 74%
    19:00 +16°C° 0 mm 0 m/s 739 mmHg 81%
    20:00 +18°C° 0 mm 1 m/s 739 mmHg 81%
    21:00 +18°C° 0 mm 1 m/s 740 mmHg 80%
    22:00 +18°C° 0 mm 1 m/s 740 mmHg 80%
    23:00 +18°C° 0 mm 1 m/s 740 mmHg 77%

    27 Maio, Segunda-feira

    Tempo Temperatura Precipitação Vento Pressão Humidade
    00:00 +18°C° 0 mm 1 m/s 740 mmHg 75%
    01:00 +18°C° 0 mm 1 m/s 740 mmHg 73%
    02:00 +18°C° 0.1 mm 1 m/s 740 mmHg 73%
    03:00 +18°C° 0.1 mm 1 m/s 740 mmHg 74%
    04:00 +17°C° 0.1 mm 2 m/s 740 mmHg 75%
    05:00 +19°C° 0 mm 1 m/s 740 mmHg 71%
    06:00 +21°C° 0 mm 1 m/s 740 mmHg 68%
    07:00 +22°C° 0 mm 1 m/s 740 mmHg 65%
    08:00 +23°C° 0 mm 1 m/s 740 mmHg 60%
    09:00 +24°C° 0 mm 1 m/s 740 mmHg 54%
    10:00 +25°C° 0 mm 1 m/s 740 mmHg 48%
    11:00 +26°C° 0 mm 1 m/s 740 mmHg 46%
    12:00 +28°C° 0 mm 1 m/s 739 mmHg 45%
    13:00 +29°C° 0 mm 1 m/s 739 mmHg 43%
    14:00 +28°C° 0 mm 1 m/s 739 mmHg 45%
    15:00 +28°C° 0 mm 2 m/s 739 mmHg 48%
    16:00 +28°C° 0 mm 2 m/s 738 mmHg 51%
    17:00 +26°C° 0 mm 2 m/s 738 mmHg 57%
    18:00 +24°C° 0 mm 1 m/s 738 mmHg 63%
    19:00 +20°C° 0 mm 0 m/s 739 mmHg 69%
    20:00 +22°C° 0 mm 1 m/s 739 mmHg 68%
    21:00 +21°C° 0 mm 1 m/s 739 mmHg 67%
    22:00 +20°C° 0 mm 2 m/s 739 mmHg 66%
    23:00 +20°C° 0 mm 2 m/s 739 mmHg 65%
    Mostrar mais